When you browse on this site, cookies collect data to enhance your experience and personalize the content and advertising you see.
Visit our Privacy Policy to learn more. By continuing to use the site, you agree to this use of cookies and data.
  • In Latvia
  • List of Countries
  • For 7 days
  • Water Temperature
  • Satellite Maps
  • Weather Map
  • Weather Widgets
  • user-avatar
    Login

    Hourly Weather Novyy Tukshum

    Today, 24 June, Monday

    Time Temperature Precipitation Wind Pressure Humidity
    00:00 +23°C° 0 mm 1 mps 752 mmHg 81%
    01:00 +22°C° 0 mm 1 mps 752 mmHg 83%
    02:00 +22°C° 0 mm 1 mps 752 mmHg 85%
    03:00 +21°C° 0 mm 1 mps 752 mmHg 87%
    04:00 +22°C° 0.4 mm 1 mps 752 mmHg 86%
    05:00 +23°C° 0.4 mm 1 mps 752 mmHg 85%
    06:00 +24°C° 0.4 mm 1 mps 752 mmHg 84%
    07:00 +25°C° 0.2 mm 1 mps 752 mmHg 78%
    08:00 +27°C° 0.2 mm 1 mps 752 mmHg 72%
    09:00 +28°C° 0.2 mm 1 mps 752 mmHg 66%
    10:00 +29°C° 0.6 mm 1 mps 752 mmHg 63%
    11:00 +30°C° 0.6 mm 1 mps 752 mmHg 60%
    12:00 +30°C° 0.6 mm 2 mps 752 mmHg 57%
    13:00 +29°C° 1 mm 3 mps 752 mmHg 61%
    14:00 +29°C° 1 mm 4 mps 752 mmHg 65%
    15:00 +28°C° 1 mm 5 mps 752 mmHg 69%
    16:00 +27°C° 0.6 mm 4 mps 752 mmHg 73%
    17:00 +26°C° 0.6 mm 3 mps 752 mmHg 77%
    18:00 +25°C° 0.6 mm 2 mps 752 mmHg 81%
    19:00 +22°C° 0.8 mm 3 mps 752 mmHg 84%
    20:00 +20°C° 0.8 mm 4 mps 752 mmHg 87%
    21:00 +19°C° 0.8 mm 5 mps 753 mmHg 90%
    22:00 +18°C° 0.3 mm 4 mps 752 mmHg 90%
    23:00 +17°C° 0.3 mm 3 mps 752 mmHg 90%

    Tomorrow, 25 June, Tuesday

    Time Temperature Precipitation Wind Pressure Humidity
    00:00 +16°C° 0.3 mm 2 mps 752 mmHg 90%
    01:00 +16°C° 0 mm 2 mps 752 mmHg 89%
    02:00 +16°C° 0 mm 2 mps 753 mmHg 89%
    03:00 +15°C° 0 mm 2 mps 753 mmHg 89%
    04:00 +16°C° 0 mm 2 mps 753 mmHg 88%
    05:00 +17°C° 0 mm 3 mps 753 mmHg 86%
    06:00 +17°C° 0 mm 3 mps 753 mmHg 85%
    07:00 +19°C° 0 mm 4 mps 754 mmHg 77%
    08:00 +20°C° 0 mm 4 mps 754 mmHg 69%
    09:00 +21°C° 0 mm 5 mps 754 mmHg 61%
    10:00 +22°C° 0 mm 5 mps 754 mmHg 57%
    11:00 +22°C° 0 mm 5 mps 754 mmHg 53%
    12:00 +23°C° 0 mm 5 mps 754 mmHg 50%
    13:00 +22°C° 0 mm 5 mps 755 mmHg 47%
    14:00 +22°C° 0 mm 5 mps 755 mmHg 48%
    15:00 +22°C° 0 mm 5 mps 755 mmHg 48%
    16:00 +22°C° 0 mm 4 mps 755 mmHg 54%
    17:00 +21°C° 0 mm 3 mps 755 mmHg 59%
    18:00 +21°C° 0 mm 3 mps 754 mmHg 64%
    19:00 +19°C° 0 mm 3 mps 755 mmHg 69%
    20:00 +17°C° 0 mm 3 mps 755 mmHg 73%
    21:00 +16°C° 0 mm 3 mps 755 mmHg 77%
    22:00 +14°C° 0 mm 3 mps 755 mmHg 80%
    23:00 +13°C° 0 mm 3 mps 755 mmHg 83%

    Day after tomorrow, 26 June, Wednesday

    Time Temperature Precipitation Wind Pressure Humidity
    00:00 +12°C° 0 mm 3 mps 755 mmHg 86%
    01:00 +12°C° 0 mm 3 mps 755 mmHg 86%
    02:00 +11°C° 0 mm 3 mps 755 mmHg 86%
    03:00 +11°C° 0 mm 3 mps 755 mmHg 87%
    04:00 +12°C° 0 mm 4 mps 755 mmHg 84%
    05:00 +13°C° 0 mm 4 mps 755 mmHg 81%
    06:00 +13°C° 0 mm 5 mps 755 mmHg 78%
    07:00 +15°C° 0 mm 5 mps 755 mmHg 72%
    08:00 +16°C° 0 mm 5 mps 755 mmHg 66%
    09:00 +17°C° 0 mm 6 mps 755 mmHg 60%
    10:00 +19°C° 0 mm 6 mps 755 mmHg 57%
    11:00 +19°C° 0 mm 6 mps 755 mmHg 54%
    12:00 +20°C° 0 mm 6 mps 754 mmHg 52%
    13:00 +20°C° 0 mm 6 mps 754 mmHg 51%
    14:00 +20°C° 0 mm 5 mps 754 mmHg 51%
    15:00 +20°C° 0 mm 5 mps 754 mmHg 51%
    16:00 +20°C° 0 mm 4 mps 753 mmHg 55%
    17:00 +19°C° 0 mm 3 mps 753 mmHg 59%
    18:00 +19°C° 0 mm 3 mps 753 mmHg 63%
    19:00 +17°C° 0 mm 2 mps 753 mmHg 66%
    20:00 +16°C° 0 mm 1 mps 752 mmHg 68%
    21:00 +14°C° 0 mm 1 mps 752 mmHg 71%
    22:00 +14°C° 0 mm 1 mps 752 mmHg 71%
    23:00 +13°C° 0 mm 1 mps 752 mmHg 71%

    27 June, Thursday

    Time Temperature Precipitation Wind Pressure Humidity
    00:00 +12°C° 0 mm 0 mps 751 mmHg 71%
    01:00 +13°C° 0 mm 1 mps 751 mmHg 71%
    02:00 +13°C° 0 mm 1 mps 751 mmHg 72%
    03:00 +13°C° 0 mm 1 mps 750 mmHg 72%
    04:00 +13°C° 0.1 mm 1 mps 750 mmHg 77%
    05:00 +13°C° 0.1 mm 1 mps 750 mmHg 82%
    06:00 +13°C° 0.1 mm 1 mps 749 mmHg 87%
    07:00 +13°C° 1.2 mm 1 mps 749 mmHg 90%
    08:00 +13°C° 1.2 mm 2 mps 749 mmHg 93%
    09:00 +11°C° 1.2 mm 3 mps 748 mmHg 96%
    10:00 +11°C° 1 mm 3 mps 748 mmHg 95%
    11:00 +12°C° 1 mm 3 mps 748 mmHg 94%
    12:00 +12°C° 1 mm 3 mps 748 mmHg 93%
    13:00 +13°C° 0.1 mm 3 mps 748 mmHg 87%
    14:00 +15°C° 0.1 mm 2 mps 748 mmHg 81%
    15:00 +15°C° 0.1 mm 2 mps 747 mmHg 74%
    16:00 +16°C° 0 mm 2 mps 747 mmHg 74%
    17:00 +16°C° 0 mm 2 mps 747 mmHg 73%
    18:00 +16°C° 0 mm 1 mps 747 mmHg 72%
    19:00 +14°C° 0 mm 1 mps 747 mmHg 77%
    20:00 +13°C° 0 mm 1 mps 747 mmHg 82%
    21:00 +11°C° 0 mm 1 mps 747 mmHg 88%
    22:00 +11°C° 0 mm 1 mps 746 mmHg 87%
    23:00 +10°C° 0 mm 0 mps 746 mmHg 87%

    28 June, Friday

    Time Temperature Precipitation Wind Pressure Humidity
    00:00 +9°C° 0 mm 0 mps 746 mmHg 87%
    01:00 +9°C° 0 mm 0 mps 746 mmHg 87%
    02:00 +9°C° 0 mm 0 mps 745 mmHg 87%
    03:00 +9°C° 0 mm 0 mps 745 mmHg 88%
    04:00 +11°C° 0 mm 1 mps 745 mmHg 86%
    05:00 +12°C° 0 mm 2 mps 744 mmHg 84%
    06:00 +13°C° 0 mm 2 mps 744 mmHg 82%
    07:00 +13°C° 0 mm 3 mps 744 mmHg 80%
    08:00 +14°C° 0 mm 4 mps 743 mmHg 78%
    09:00 +14°C° 0 mm 5 mps 743 mmHg 76%
    10:00 +14°C° 0.2 mm 5 mps 742 mmHg 81%
    11:00 +13°C° 0.2 mm 5 mps 742 mmHg 87%
    12:00 +13°C° 0.2 mm 5 mps 742 mmHg 92%
    13:00 +13°C° 0.7 mm 5 mps 741 mmHg 92%
    14:00 +13°C° 0.7 mm 6 mps 740 mmHg 93%
    15:00 +12°C° 0.7 mm 7 mps 740 mmHg 94%
    16:00 +14°C° 0.1 mm 7 mps 739 mmHg 93%
    17:00 +15°C° 0.1 mm 7 mps 739 mmHg 93%
    18:00 +15°C° 0.1 mm 7 mps 739 mmHg 92%
    19:00 +15°C° 0.3 mm 6 mps 738 mmHg 93%
    20:00 +15°C° 0.3 mm 6 mps 738 mmHg 94%
    21:00 +15°C° 0.3 mm 6 mps 738 mmHg 95%
    22:00 +15°C° 0.6 mm 6 mps 737 mmHg 95%
    23:00 +15°C° 0.6 mm 6 mps 737 mmHg 94%

    29 June, Saturday

    Time Temperature Precipitation Wind Pressure Humidity
    00:00 +15°C° 0.6 mm 6 mps 737 mmHg 93%
    01:00 +15°C° 0.5 mm 5 mps 736 mmHg 93%
    02:00 +14°C° 0.5 mm 4 mps 736 mmHg 92%
    03:00 +14°C° 0.5 mm 3 mps 736 mmHg 92%
    04:00 +14°C° 0.6 mm 4 mps 735 mmHg 93%
    05:00 +15°C° 0.6 mm 5 mps 735 mmHg 95%
    06:00 +15°C° 0.6 mm 5 mps 735 mmHg 96%
    07:00 +16°C° 1.7 mm 5 mps 735 mmHg 95%
    08:00 +17°C° 1.7 mm 4 mps 735 mmHg 94%
    09:00 +17°C° 1.7 mm 3 mps 735 mmHg 94%
    10:00 +18°C° 0.8 mm 3 mps 735 mmHg 88%
    11:00 +20°C° 0.8 mm 3 mps 735 mmHg 83%
    12:00 +21°C° 0.8 mm 3 mps 735 mmHg 77%
    13:00 +21°C° 0.3 mm 4 mps 735 mmHg 73%
    14:00 +22°C° 0.3 mm 4 mps 735 mmHg 68%
    15:00 +22°C° 0.3 mm 5 mps 735 mmHg 63%
    16:00 +21°C° 0.4 mm 5 mps 736 mmHg 69%
    17:00 +20°C° 0.4 mm 4 mps 736 mmHg 74%
    18:00 +19°C° 0.4 mm 4 mps 736 mmHg 80%
    19:00 +18°C° 0.1 mm 4 mps 736 mmHg 83%
    20:00 +15°C° 0.1 mm 4 mps 737 mmHg 86%
    21:00 +14°C° 0.1 mm 4 mps 737 mmHg 89%
    22:00 +13°C° 0 mm 4 mps 737 mmHg 90%
    23:00 +13°C° 0 mm 4 mps 737 mmHg 91%
    Show more